Change the Weather History Date:

Monday, March 3, 2014

  Actual Average Record
Temperature  
Mean Temperature 24 °F -  
Max Temperature 30 °F 42 °F 57 °F (2004)
Min Temperature 17 °F 28 °F 12 °F (2009)
Degree Days  
Heating Degree Days 42    
Moisture  
Dew Point 7 °F    
Average Humidity 56    
Maximum Humidity 86    
Minimum Humidity 34    
Precipitation  
Precipitation 0.00 in - - ()
Sea Level Pressure  
Sea Level Pressure 30.15 in    
Wind  
Wind Speed 12 mph (North)    
Max Wind Speed 18 mph    
Max Gust Speed 28 mph    
Visibility 8 miles    
Events Snow    
Averages and records for this station are not official NWS values.
T = Trace of Precipitation, MM = Missing Value Source: NWS Daily Summary

Daily Weather History Graph

Daily Weather History Graph

Search for Another Location

Airport or City:

Trip Planner

Search our weather history database for the weather conditions in past years. The results will help you decide how hot, cold, wet, or windy it might be!

Date:

Astronomy

Mar. 03, 2014 Rise Set
Actual Time 6:24 AM EST 5:47 PM EST
Civil Twilight 5:57 AM EST 6:14 PM EST
Nautical Twilight 5:25 AM EST 6:46 PM EST
Astronomical Twilight 4:53 AM EST 7:18 PM EST
Moon 7:30 AM EST (3/3) 8:48 PM EST (3/3)
Length of Visible Light 12h 17m
Length of Day
11h 22m
Waxing Crescent, 8% of the Moon is Illuminated
Mar 3
Waxing Crescent
Mar 8
First Quarter
Mar 16
Full
Mar 23
Last Quarter
Mar 30
New

Hourly Weather History & Observations

Time (EST) Temp. Windchill Dew Point Humidity Pressure Visibility Wind Dir Wind Speed Gust Speed Precip Events Conditions
12:53 AM 30.9 °F 22.2 °F 17.1 °F 57% 30.01 in 10.0 mi North 10.4 mph - N/A   Overcast
1:53 AM 28.9 °F 19.8 °F 15.1 °F 56% 30.01 in 10.0 mi North 10.4 mph 19.6 mph N/A   Overcast
2:53 AM 25.0 °F 13.1 °F 16.0 °F 69% 30.02 in 2.5 mi North 13.8 mph - 0.00 in Snow Light Snow
3:03 AM 24.8 °F 12.9 °F 17.6 °F 74% 30.02 in 2.5 mi North 13.8 mph 20.7 mph 0.00 in Snow Light Snow
3:14 AM 24.8 °F 13.4 °F 17.6 °F 74% 30.02 in 1.8 mi North 12.7 mph - 0.00 in Snow Light Snow
3:34 AM 23.0 °F 11.7 °F 17.6 °F 80% 30.03 in 2.0 mi North 11.5 mph - 0.00 in Snow Light Snow
3:53 AM 21.9 °F 8.7 °F 18.0 °F 85% 30.04 in 2.0 mi North 15.0 mph - 0.00 in Snow Light Snow
4:11 AM 21.2 °F 9.5 °F 17.6 °F 86% 30.05 in 1.5 mi North 11.5 mph - 0.00 in Snow Light Snow
4:31 AM 21.2 °F 9.5 °F 17.6 °F 86% 30.06 in 2.5 mi North 11.5 mph - 0.00 in Snow Light Snow
4:49 AM 21.2 °F 8.9 °F 17.6 °F 86% 30.06 in 3.0 mi North 12.7 mph 21.9 mph 0.00 in Snow Light Snow
4:53 AM 21.0 °F 9.3 °F 16.0 °F 81% 30.07 in 4.0 mi North 11.5 mph 21.9 mph 0.00 in Snow Light Snow
5:02 AM 21.2 °F 9.5 °F 15.8 °F 80% 30.07 in 5.0 mi North 11.5 mph 18.4 mph 0.00 in Snow Light Snow
5:53 AM 19.9 °F 6.7 °F 10.9 °F 68% 30.08 in 5.0 mi North 13.8 mph 21.9 mph 0.00 in Snow Light Snow
6:53 AM 19.9 °F 6.2 °F 6.1 °F 55% 30.12 in 10.0 mi North 15.0 mph 23.0 mph 0.00 in   Overcast
7:53 AM 19.0 °F 3.6 °F 5.0 °F 54% 30.14 in 10.0 mi NNE 18.4 mph 27.6 mph N/A   Overcast
8:53 AM 19.0 °F 5.6 °F 5.0 °F 54% 30.16 in 10.0 mi North 13.8 mph - N/A   Overcast
9:53 AM 19.9 °F 7.9 °F 1.9 °F 46% 30.17 in 10.0 mi NNW 11.5 mph 18.4 mph N/A   Overcast
10:53 AM 19.9 °F 7.3 °F -2.0 °F 38% 30.18 in 10.0 mi North 12.7 mph 20.7 mph N/A   Mostly Cloudy
11:53 AM 19.9 °F 7.9 °F -2.9 °F 37% 30.17 in 10.0 mi North 11.5 mph - N/A   Partly Cloudy
12:53 PM 19.0 °F 5.6 °F -5.1 °F 34% 30.18 in 10.0 mi NNW 13.8 mph 23.0 mph N/A   Overcast
1:53 PM 19.0 °F 5.0 °F -4.0 °F 36% 30.15 in 10.0 mi NNW 15.0 mph 21.9 mph N/A   Scattered Clouds
2:53 PM 19.0 °F 6.8 °F -2.9 °F 38% 30.19 in 10.0 mi NNW 11.5 mph - N/A   Mostly Cloudy
3:53 PM 19.9 °F 9.3 °F -0.0 °F 42% 30.19 in 10.0 mi North 9.2 mph 19.6 mph N/A   Partly Cloudy
4:53 PM 19.9 °F 7.9 °F -0.9 °F 40% 30.22 in 10.0 mi North 11.5 mph 19.6 mph N/A   Clear
5:53 PM 19.9 °F 9.3 °F -0.9 °F 40% 30.24 in 10.0 mi North 9.2 mph - N/A   Clear
6:53 PM 19.0 °F 7.5 °F -2.0 °F 40% 30.27 in 10.0 mi North 10.4 mph - N/A   Clear
7:53 PM 19.0 °F 9.0 °F -2.0 °F 40% 30.29 in 10.0 mi North 8.1 mph - N/A   Clear
8:53 PM 17.1 °F 8.7 °F -2.0 °F 43% 30.31 in 10.0 mi NNE 5.8 mph - N/A   Clear
9:53 PM 17.1 °F 6.6 °F -0.9 °F 45% 30.32 in 10.0 mi NNE 8.1 mph - N/A   Clear
10:53 PM 17.1 °F 6.6 °F -2.0 °F 43% 30.33 in 10.0 mi NNE 8.1 mph - N/A   Clear
11:53 PM 17.1 °F 6.6 °F -2.0 °F 43% 30.33 in 10.0 mi North 8.1 mph - N/A   Clear